AirNav   Free Bose QuietComfort 20
 
 761 users online  

15W Dennis Farms Airport
Laingsburg, Michigan, USA

GOING TO LAINGSBURG?


FAA INFORMATION EFFECTIVE 05 DECEMBER 2019

Location

FAA Identifier: 15W
Lat/Long: 42-53-39.9000N 084-23-32.0000W
42-53.665000N 084-23.533333W
42.8944167,-84.3922222
(estimated)
Elevation: 828 ft. / 252.4 m (surveyed)
Variation: 05W (1985)
From city: 2 miles NW of LAINGSBURG, MI
Time zone: UTC -5 (UTC -4 during Daylight Saving Time)
Zip code: 48848

Airport Operations

Airport use: Open to the public
Activation date: 06/1971
Control tower: no
ARTCC: CLEVELAND CENTER
FSS: LANSING FLIGHT SERVICE STATION
NOTAMs facility: LAN (NOTAM-D service available)
Attendance: IREG
Wind indicator: yes
Segmented circle: no

Airport Communications

CTAF: 122.9
WX ASOS at LAN (11 nm SW): 119.75 (517-908-8494)
WX AWOS-3 at RNP (13 nm NE): 118.025 (989-729-2967)
WX AWOS-3 at TEW (20 nm S): 119.425 (517-676-5607)

Nearby radio navigation aids

VOR radial/distance  VOR name  Freq  Var
FNTr267/28.7FLINT VORTAC116.9006W
JXNr009/38.2JACKSON VOR/DME109.6005W

Airport Services

Airframe service: NONE
Powerplant service: NONE
Bottled oxygen: NONE

Runway Information

Runway 9/27

Dimensions: 1880 x 50 ft. / 573 x 15 m
Surface: turf, in fair condition
Runway edge markings: 09/27 MARKED WITH 2 FT YELLOW CONES.
RUNWAY 9  RUNWAY 27
Latitude: 42-53.662637N42-53.665733N
Longitude: 084-23.743947W084-23.322933W
Elevation: 828.0 ft.827.0 ft.
Traffic pattern: leftleft
Runway heading: 094 magnetic, 089 true274 magnetic, 269 true
Obstructions: 76 ft. trees, 942 ft. from runway, 112 ft. left of centerline, 12:1 slope to clear81 ft. trees, 864 ft. from runway, 100 ft. right of centerline, 10:1 slope to clear

Airport Ownership and Management from official FAA records

Ownership: Privately-owned
Owner: KEVIN DENNIS
8715 ALWARD RD
LAINGSBURG, MI 48848
Phone 517-651-5375
Manager: KEVIN COZIK
6626 S. PENINSULA WAY
LAINGSBURG, MI 48848
Phone 517-749-7196

Airport Operational Statistics

Aircraft based on the field: 2
Single engine airplanes: 2
    
Aircraft operations: 100/year *
50% transient general aviation
50% local general aviation
* for 12-month period ending 31 December 2018

Additional Remarks

DEER & BIRDS ON & INVOF ARPT.
CTC ARPT MGR FOR RY CONDS.
FOR CD CTC GREAT LAKES APCH AT 269-459-3345, WHEN APCH CLSD CTC CLEVELAND ARTCC AT 440-774-0490

Instrument Procedures

There are no published instrument procedures at 15W.

Some nearby airports with instrument procedures:

KLAN - Capital Region International Airport (11 nm SW)
KRNP - Owosso Community Airport (13 nm NE)
4D0 - Abrams Municipal Airport (17 nm SW)
KTEW - Mason Jewett Field Airport (20 nm S)
KOZW - Livingston County Spencer J Hardy Airport (24 nm SE)
 
Loc | Ops | Rwys | IFR | FBO | Links
Com | Nav | Svcs | Stats | Notes
Area around 15W (Dennis Farms Airport)
 
Road maps at: MapQuest Bing Google
 
Aerial photo
No photo
 
Sectional chart

 
Airport distance calculator
Flying to Dennis Farms Airport? Find the distance to fly.

From to 15W

Sunrise and sunset
Times for 13-Dec-2019
 Local
(UTC-5)
 Zulu
(UTC)
Morning civil twilight07:2912:29
Sunrise08:0113:01
Sunset17:0222:02
Evening civil twilight17:3522:35

Current date and time
Zulu (UTC)  13-Dec-2019 23:53:49
Local (UTC-5)  13-Dec-2019 18:53:49
 
METAR
KLAN 
11nm SW 
132253Z 19003KT 10SM CLR 03/M03 A2988 RMK AO2 SLP127 T00281033
KRNP 
13nm NE 
132335Z AUTO 15003KT 10SM CLR 03/M01 A2987 RMK AO2 T00261012
KTEW 
20nm S 
132336Z AUTO 00000KT 10SM SCT070 OVC080 02/M02 A2987 RMK AO2 T00151020
TAF
KLAN 
11nm SW 
131731Z 1318/1418 18004KT P6SM BKN080 FM140600 00000KT 4SM BR OVC250 FM140900 33003KT 1SM BR OVC008 FM141400 34005KT P6SM OVC008
NOTAMs
Click for the latest NOTAMs
NOTAMs are issued by the DoD/FAA and will open in a separate window not controlled by AirNav.

 

 
 

Would you like to see your business listed on this page?

 If your business provides an interesting product or service to pilots, flight crews, aircraft, or users of the Dennis Farms Airport, you should consider listing it here.  To start the listing process, click on the button below
 
Add a business
 

Other Pages about Dennis Farms Airport

Page from the Michigan Airport Directory (PDF)
 
Update a link
 
Copyright © AirNav, LLC. All rights reserved. Privacy Policy  Contact